OK1TBF-15 Weather Reports


time (UTC)temp
F
wind
direction
speed
knots
gust
knots
rain 1hr
in
rain 24hr
in
rain mn
in
humidity
%
barometer
mb
20260905124237 65 0.0 0.0 0.00 0.00 0.00 58 1021.0
20260905121220 67 0.0 0.0 0.00 0.00 0.00 57 1021.2
20260905074109 59 0.0 0.0 0.00 0.00 0.00 83 1020.3
20260905072049 58 0.0 0.0 0.00 0.00 0.00 87 1020.4
20260905063041 56 0.0 0.0 0.00 0.00 0.00 90 1020.1
20260905062041 56 0.0 0.0 0.00 0.00 0.00 90 1019.8
20260905061041 56 0.0 0.0 0.00 0.00 0.00 89 1019.9
20260905054041 56 0.0 0.0 0.00 0.00 0.00 90 1019.3
20260905040913 59 0.0 0.0 0.00 0.00 0.00 89 1018.0
20260905035913 59 0.0 0.0 0.00 0.00 0.00 90 1018.5
20260905034913 59 0.0 0.0 0.00 0.00 0.00 91 1019.1
20260905033913 60 0.0 0.0 0.00 0.00 0.00 90 1018.5
20260905032913 60 0.0 0.0 0.00 0.00 0.00 90 1018.1
20260905031913 60 0.0 0.0 0.00 0.00 0.00 90 1017.7
20260905030914 60 0.0 0.0 0.00 0.00 0.00 90 1017.8
20260905025913 60 0.0 0.0 0.00 0.00 0.00 89 1017.7
20260905023910 60 0.0 0.0 0.00 0.00 0.00 89 1018.0
20260905022910 60 0.0 0.0 0.00 0.00 0.00 89 1017.9
20260905021911 60 0.0 0.0 0.00 0.00 0.00 88 1017.9
20260905020910 60 0.0 0.0 0.00 0.00 0.00 87 1017.5
20260905015910 60 0.0 0.0 0.00 0.00 0.00 85 1017.1
20260905014911 61 0.0 0.0 0.00 0.00 0.00 83 1017.3
20260905013910 61 0.0 0.0 0.00 0.00 0.00 80 1016.9
20260905012910 62 0.0 0.0 0.00 0.00 0.00 79 1017.1
20260905011911 62 0.0 0.0 0.00 0.00 0.00 77 1017.0
20260905010910 62 0.0 0.0 0.00 0.00 0.00 76 1016.9
20260905005910 62 0.0 0.0 0.00 0.00 0.00 77 1017.1
20260905004911 62 0.0 0.0 0.00 0.00 0.00 76 1016.9
20260905003910 63 0.0 0.0 0.00 0.00 0.00 75 1016.9
20260905002910 63 0.0 0.0 0.00 0.00 0.00 74 1016.7
20260905001910 64 0.0 0.0 0.00 0.00 0.00 74 1016.6
20260905000910 65 0.0 0.0 0.00 0.00 0.00 70 1016.4
20260904235910 66 0.0 0.0 0.00 0.00 0.00 67 1016.2
20260904234911 65 0.0 0.0 0.00 0.00 0.00 68 1015.2
20260904232910 66 0.0 0.0 0.00 0.00 0.00 70 1015.4
20260904225852 69 0.0 0.0 0.00 0.00 0.00 67 1014.2
20260904224850 69 0.0 0.0 0.00 0.00 0.00 65 1013.6
20260904185901 73 0.0 0.0 0.00 0.00 0.00 61 1013.6
20260904180844 74 0.0 0.0 0.00 0.00 0.00 61 1014.0
20260904175846 74 0.0 0.0 0.00 0.00 0.00 62 1013.9
20260904171853 75 0.0 0.0 0.00 0.00 0.00 60 1013.9